This is the latest recevied weather packets stored in our database for station/object N3FWE. If no packets are shown the sender has not sent any weather packets the latest 10 day(s).
| Time | Temp. | Humidity | Pressure | Rain* | Wind** | Luminosity | Snow |
|---|---|---|---|---|---|---|---|
| 1777737012 | 12.22° C | 49% | 1015.1 hPa | 0 mm | - | - | - |
| 1777736413 | 12.22° C | 52% | 1014.9 hPa | 0 mm | - | - | - |
| 1777735812 | 12.22° C | 51% | 1015.2 hPa | 0 mm | - | - | - |
| 1777735213 | 11.67° C | 51% | 1015.2 hPa | 0 mm | - | - | - |
| 1777734613 | 12.78° C | 53% | 1015.5 hPa | 0 mm | - | - | - |
| 1777734013 | 12.22° C | 51% | 1015.2 hPa | 0 mm | - | - | - |
| 1777732813 | 12.22° C | 55% | 1015 hPa | 0 mm | - | - | - |
| 1777732212 | 11.67° C | 59% | 1014.9 hPa | 0 mm | - | - | - |
| 1777731613 | 11.11° C | 57% | 1014.9 hPa | 0 mm | - | - | - |
| 1777731012 | 10.56° C | 58% | 1015 hPa | 0 mm | - | - | - |
| 1777730413 | 10° C | 63% | 1015.2 hPa | 0 mm | - | - | - |
| 1777729812 | 8.89° C | 64% | 1015.3 hPa | 0 mm | - | - | - |
| 1777729213 | 8.33° C | 69% | 1015.2 hPa | 0 mm | - | - | - |
| 1777728613 | 8.33° C | 66% | 1015.2 hPa | 0 mm | - | - | - |
| 1777727412 | 8.33° C | 66% | 1015.2 hPa | 0 mm | - | - | - |
| 1777726813 | 7.78° C | 69% | 1015.2 hPa | 0 mm | - | - | - |
| 1777726213 | 7.78° C | 72% | 1015.3 hPa | 0 mm | - | - | - |
| 1777725612 | 7.22° C | 72% | 1015.3 hPa | 0 mm | - | - | - |
| 1777725012 | 7.22° C | 73% | 1015.4 hPa | 0 mm | - | - | - |
| 1777724412 | 7.22° C | 75% | 1015.4 hPa | 0 mm | - | - | - |
| 1777723813 | 7.22° C | 75% | 1015.5 hPa | 0 mm | - | - | - |
| 1777723213 | 7.22° C | 75% | 1015.5 hPa | 0 mm | - | - | - |
| 1777722612 | 6.67° C | 77% | 1015.3 hPa | 0 mm | - | - | - |
| 1777722011 | 6.67° C | 77% | 1015.2 hPa | 0 mm | - | - | - |
| 1777721411 | 6.67° C | 78% | 1015.3 hPa | 0 mm | - | - | - |
* Rain latest hour (hover to see other rain measurements)
** Current wind speed in m/s (hover to see current wind gust speed)